Home > Weather > Sherbrooke > Past weeks

Flag for Canada Past Weather in Sherbrooke, Quebec, Canada — Yesterday and Last 2 Weeks

Now
61 °F

Mostly cloudy.


Feels Like: 61 °F
Forecast: 58 / 78 °F
Wind: 2 mph from North

Location: Sherbrooke

Current Time: Jul 29, 2016 at 6:13:23 AM

Latest Report: Jul 29, 2016 at 5:00 AM


Visibility: 9 mi

Pressure: 29.92 "Hg

Humidity: 100%

Dew Point: 61 °F

Location of SherbrookeLocation

Past Weather in Sherbrooke — Graph

°F

Sherbrooke Temperature Yesterday

Maximum temperature yesterday: 79 °F (at 1:00 PM)
Minimum temperature yesterday: 63 °F (at 4:00 AM)
Average temperature yesterday: 70 °F

High & Low Weather Summary for the Past Weeks

 TemperatureHumidityPressure
High88 °F (Jul 14, 3:00 PM)100% (Jul 14, 9:00 PM)30.17 "Hg (Jul 14, 9:00 PM)
Low50 °F (Jul 20, 3:00 AM)40% (Jul 27, 4:00 PM)29.66 "Hg (Jul 14, 4:00 PM)
Average68 °F80%29.91 "Hg
* Reported Jul 14 5:00 AM — Jul 29 5:00 AM, Sherbrooke, Weather by CustomWeather, © 2016

Note: Actual official high and low records may vary slightly from our data, if they occured in-between our weather recording intervals... More about our weather records

Advertising

Sherbrooke Weather History for the Previous 24 Hours

Scroll right to see more
 ConditionsComfort  
Time TempWeatherWind HumidityBarometerVisibility
5:00 AM
Fri, Jul 29
61 °FMostly cloudy.2 mph100%29.92 "Hg9 mi
4:00 AM63 °FMostly cloudy.3 mph94%29.91 "Hg9 mi
3:04 AM61 °FFog.No wind100%29.91 "Hg2 mi
3:00 AM61 °FFog.No wind100%29.91 "Hg6 mi
2:00 AM63 °FPassing clouds.3 mph94%29.91 "Hg9 mi
1:00 AM63 °FPassing clouds.2 mph100%29.92 "Hg9 mi
12:00 AM64 °FMostly cloudy.3 mph94%29.93 "Hg9 mi
11:00 PM
Thu, Jul 28
64 °FMostly cloudy.5 mph94%29.92 "Hg9 mi
10:00 PM66 °FOvercast.2 mph88%29.92 "Hg9 mi
9:00 PM68 °FOvercast.3 mph83%29.91 "Hg9 mi
8:00 PM72 °FSunny.3 mph78%29.91 "Hg9 mi
7:00 PM77 °FSunny.7 mph61%29.89 "Hg9 mi
6:00 PM79 °FSunny.6 mph58%29.88 "Hg9 mi
5:00 PM79 °FSunny.7 mph70%29.88 "Hg9 mi
4:00 PM77 °FPartly sunny.6 mph79%29.88 "Hg9 mi
3:00 PM73 °FRain. Cloudy.7 mph83%29.89 "Hg9 mi
2:00 PM75 °FOvercast.8 mph74%29.88 "Hg9 mi
1:00 PM79 °FPassing clouds.6 mph61%29.89 "Hg9 mi
12:00 PM77 °FScattered clouds.3 mph69%29.90 "Hg9 mi
11:00 AM75 °FScattered clouds.5 mph78%29.90 "Hg9 mi
10:00 AM72 °FSunny.3 mph83%29.91 "Hg9 mi
9:00 AM70 °FPartly sunny.5 mph88%29.91 "Hg9 mi
8:00 AM68 °FSunny.No wind88%29.90 "Hg9 mi
7:00 AM64 °FPartly sunny.2 mph100%29.90 "Hg9 mi
6:00 AM63 °FPassing clouds.3 mph100%29.89 "Hg7 mi
Weather by CustomWeather, © 2016

See weather overviewHow to use our weather pages